Location: Unspecified
(33.6682°S, 0.0000°E)
Time: 19:47:52
(UTC+00:00)

Courier 1B - All Passes

Search period start: 17 June 2019 00:00
Search period end: 27 June 2019 00:00
Orbit: 963 x 1209 km, 28.3° (Epoch: 17 June)

Date Brightness Start Highest point End Pass type
(mag) Time Alt. Az. Time Alt. Az. Time Alt. Az.
17 Jun - 05:48:00 10° N 05:50:40 12° NNE 05:53:17 10° NE visible
17 Jun - 07:38:07 10° NW 07:44:03 32° NNE 07:49:47 10° E daylight
17 Jun - 09:31:14 10° WNW 09:37:39 52° N 09:43:55 10° E daylight
17 Jun - 11:25:05 10° W 11:31:21 49° N 11:37:37 10° ENE daylight
17 Jun - 13:19:27 10° WNW 13:24:51 28° NNW 13:30:23 10° NE daylight
18 Jun - 06:44:47 10° NNW 06:50:26 27° NNE 06:55:51 10° ENE daylight
18 Jun - 08:37:33 10° WNW 08:43:59 48° N 08:50:14 10° E daylight
18 Jun - 10:31:20 10° W 10:37:42 53° N 10:43:59 10° ENE daylight
18 Jun - 12:25:32 10° W 12:31:16 34° NNW 12:37:05 10° NE daylight
18 Jun - 14:21:43 10° NW 14:24:36 13° NNW 14:27:30 10° N daylight
19 Jun - 05:51:38 10° NNW 05:56:48 22° NNE 06:01:46 10° ENE visible
19 Jun - 07:43:52 10° WNW 07:50:20 44° NNE 07:56:31 10° E daylight
19 Jun - 09:37:32 10° WNW 09:44:02 55° N 09:50:22 10° ENE daylight
19 Jun - 11:31:40 10° W 11:37:41 40° NNW 11:43:41 10° NE daylight
19 Jun - 13:26:54 10° WNW 13:31:02 18° NNW 13:35:13 10° NNE daylight
20 Jun - 04:58:47 10° N 05:03:09 17° NNE 05:07:24 10° ENE visible
20 Jun - 06:50:15 10° NW 06:56:40 38° NNE 07:02:46 10° E daylight
20 Jun - 08:43:45 10° WNW 08:50:22 55° N 08:56:43 10° ENE daylight
20 Jun - 10:37:49 10° W 10:44:04 46° NNW 10:50:13 10° ENE daylight
20 Jun - 12:32:34 10° WNW 12:37:29 23° NNW 12:42:26 10° NNE daylight
21 Jun - 04:06:32 10° N 04:09:30 13° NNE 04:12:24 10° NE visible
21 Jun - 05:56:43 10° NW 06:02:59 33° NNE 06:08:57 10° E visible
21 Jun - 07:49:56 10° WNW 07:56:40 53° N 08:03:05 10° E daylight
21 Jun - 09:43:58 10° W 09:50:25 51° N 09:56:41 10° ENE daylight
21 Jun - 11:38:27 10° WNW 11:43:56 29° NNW 11:49:23 10° NE daylight
22 Jun - 05:03:19 10° NNW 05:09:18 27° NNE 05:15:00 10° ENE visible
22 Jun - 06:56:09 10° WNW 07:02:58 49° N 07:09:24 10° E daylight
22 Jun - 08:50:05 10° W 08:56:45 54° N 09:03:08 10° ENE daylight
22 Jun - 10:44:26 10° W 10:50:21 35° NNW 10:56:09 10° NE daylight
22 Jun - 12:40:35 10° WNW 12:43:37 14° NNW 12:46:38 10° N daylight
23 Jun - 04:10:07 10° NNW 04:15:36 22° NNE 04:20:52 10° ENE visible
23 Jun - 06:02:24 10° NW 06:09:15 44° NNE 06:15:42 10° E visible
23 Jun - 07:56:12 10° WNW 08:03:03 56° N 08:09:32 10° ENE daylight
23 Jun - 09:50:28 10° W 09:56:45 41° NNW 10:02:49 10° NE daylight
23 Jun - 11:45:45 10° WNW 11:50:05 18° NNW 11:54:22 10° NNE daylight
24 Jun - 03:17:15 10° N 03:21:54 17° NNE 03:26:25 10° ENE visible
24 Jun - 05:08:43 10° NW 05:15:29 39° NNE 05:21:55 10° E visible
24 Jun - 07:02:18 10° WNW 07:09:19 56° N 07:15:55 10° E daylight
24 Jun - 08:56:31 10° W 09:03:06 48° NNW 09:09:23 10° ENE daylight
24 Jun - 10:51:22 10° WNW 10:56:33 24° NNW 11:01:37 10° NNE daylight
25 Jun - 02:25:01 10° N 02:28:12 13° NNE 02:31:19 10° NE visible
25 Jun - 04:15:08 10° NW 04:21:45 33° NNE 04:28:03 10° E visible
25 Jun - 06:08:25 10° WNW 06:15:33 53° N 06:22:16 10° E visible
25 Jun - 08:02:34 10° W 08:09:25 53° N 08:15:53 10° ENE daylight
25 Jun - 09:57:10 10° W 10:02:59 30° NNW 10:08:35 10° NE daylight
25 Jun - 11:56:04 10° NNW 11:56:09 10° NNW 11:56:15 10° NNW daylight
26 Jun - 03:21:44 10° NNW 03:28:00 27° NNE 03:34:01 10° ENE visible
26 Jun - 05:14:33 10° WNW 05:21:46 49° N 05:28:33 10° E visible
26 Jun - 07:08:36 10° W 07:15:41 56° N 07:22:20 10° ENE daylight
26 Jun - 09:03:04 10° W 09:09:23 37° NNW 09:15:23 10° NE daylight
26 Jun - 10:59:07 10° WNW 11:02:38 15° NNW 11:06:05 10° N daylight
